| time (UTC) | temp F | wind direction | speed knots | gust knots | rain 1hr in | rain 24hr in | rain mn in | humidity % | barometer mb |
| 20260503230111 | 89 | 275 | 2.6 | 10.4 | 0.00 | 0.00 | 0.00 | 14 | 1002.1 |
| 20260503224555 | 90 | 302 | 3.5 | 8.7 | 0.00 | 0.00 | 0.00 | 15 | 1002.4 |
| 20260503223109 | 90 | 273 | 2.6 | 5.2 | 0.00 | 0.00 | 0.00 | 15 | 1002.4 |
| 20260503221553 | 88 | 91 | 1.7 | 2.6 | 0.00 | 0.00 | 0.00 | 17 | 1002.6 |
| 20260503220146 | 86 | 322 | 2.6 | 5.2 | 0.00 | 0.00 | 0.00 | 24 | 1002.6 |
| 20260503214553 | 85 | 314 | 0.0 | 3.5 | 0.00 | 0.00 | 0.00 | 24 | 1002.9 |
| 20260503213043 | 85 | 286 | 0.0 | 3.5 | 0.00 | 0.00 | 0.00 | 24 | 1003.3 |
| 20260503211537 | 85 | 91 | 0.9 | 5.2 | 0.00 | 0.00 | 0.00 | 24 | 1003.6 |
| 20260503210034 | 85 | 132 | 0.9 | 4.3 | 0.00 | 0.00 | 0.00 | 25 | 1003.8 |
| 20260503204536 | 84 | 128 | 0.0 | 6.1 | 0.00 | 0.00 | 0.00 | 27 | 1004.1 |
| 20260503203030 | 85 | 124 | 0.0 | 0.9 | 0.00 | 0.00 | 0.00 | 23 | 1004.3 |
| 20260503201528 | 84 | 152 | 0.9 | 6.1 | 0.00 | 0.00 | 0.00 | 23 | 1004.6 |
| 20260503200025 | 85 | 260 | 0.0 | 7.0 | 0.00 | 0.00 | 0.00 | 22 | 1004.9 |
| 20260503194523 | 85 | 99 | 0.9 | 4.3 | 0.00 | 0.00 | 0.00 | 22 | 1004.9 |
| 20260503193020 | 84 | 234 | 1.7 | 4.3 | 0.00 | 0.00 | 0.00 | 24 | 1005.1 |
| 20260503191516 | 84 | 146 | 2.6 | 5.2 | 0.00 | 0.00 | 0.00 | 25 | 1005.2 |
| 20260503190016 | 83 | 248 | 1.7 | 5.2 | 0.00 | 0.00 | 0.00 | 26 | 1005.4 |
| 20260503184512 | 82 | 285 | 0.0 | 4.3 | 0.00 | 0.00 | 0.00 | 28 | 1005.8 |
| 20260503183008 | 82 | 104 | 0.9 | 3.5 | 0.00 | 0.00 | 0.00 | 28 | 1006.1 |
| 20260503181520 | 81 | 98 | 0.9 | 4.3 | 0.00 | 0.00 | 0.00 | 28 | 1006.4 |
| 20260503180014 | 81 | 129 | 0.0 | 2.6 | 0.00 | 0.00 | 0.00 | 28 | 1006.4 |
| 20260503174504 | 81 | 99 | 0.0 | 4.3 | 0.00 | 0.00 | 0.00 | 30 | 1006.6 |
| 20260503173002 | 81 | 119 | 0.9 | 2.6 | 0.00 | 0.00 | 0.00 | 30 | 1006.8 |
| 20260503171600 | 80 | 121 | 0.0 | 2.6 | 0.00 | 0.00 | 0.00 | 30 | 1006.7 |
| 20260503170113 | 80 | 250 | 0.9 | 3.5 | 0.00 | 0.00 | 0.00 | 30 | 1006.8 |
| 20260503081557 | 75 | 100 | 0.0 | 6.1 | 0.00 | 0.00 | 0.00 | 32 | 1006.4 |
| 20260503071649 | 75 | 93 | 3.5 | 7.8 | 0.00 | 0.00 | 0.00 | 31 | 1006.6 |
| 20260503054540 | 77 | 79 | 3.5 | 9.6 | 0.00 | 0.00 | 0.00 | 30 | 1005.8 |
| 20260503053038 | 76 | 318 | 4.3 | 12.2 | 0.00 | 0.00 | 0.00 | 30 | 1005.8 |
| 20260503051537 | 76 | 316 | 3.5 | 8.7 | 0.00 | 0.00 | 0.00 | 30 | 1006.0 |
| 20260503050037 | 76 | 316 | 3.5 | 9.6 | 0.00 | 0.00 | 0.00 | 30 | 1006.0 |
| 20260503044549 | 77 | 90 | 3.5 | 11.3 | 0.00 | 0.00 | 0.00 | 29 | 1005.9 |
| 20260503043037 | 77 | 52 | 4.3 | 10.4 | 0.00 | 0.00 | 0.00 | 28 | 1005.7 |
| 20260503041537 | 77 | 53 | 2.6 | 9.6 | 0.00 | 0.00 | 0.00 | 28 | 1005.4 |
| 20260503040046 | 77 | 108 | 2.6 | 11.3 | 0.00 | 0.00 | 0.00 | 27 | 1005.1 |
| 20260503034535 | 78 | 94 | 3.5 | 8.7 | 0.00 | 0.00 | 0.00 | 27 | 1005.0 |
| 20260503033041 | 78 | 48 | 4.3 | 11.3 | 0.00 | 0.00 | 0.00 | 26 | 1005.0 |
| 20260503031533 | 79 | 308 | 3.5 | 10.4 | 0.00 | 0.00 | 0.00 | 26 | 1004.9 |
| 20260503030035 | 79 | 72 | 3.5 | 7.0 | 0.00 | 0.00 | 0.00 | 25 | 1004.7 |
| 20260503024536 | 79 | 119 | 1.7 | 7.0 | 0.00 | 0.00 | 0.00 | 25 | 1004.5 |
| 20260503023030 | 80 | 72 | 2.6 | 6.1 | 0.00 | 0.00 | 0.00 | 24 | 1004.5 |
| 20260503021531 | 81 | 75 | 1.7 | 6.1 | 0.00 | 0.00 | 0.00 | 24 | 1004.5 |
| 20260503020030 | 82 | 68 | 2.6 | 6.1 | 0.00 | 0.00 | 0.00 | 22 | 1004.5 |
| 20260503014531 | 82 | 117 | 1.7 | 7.0 | 0.00 | 0.00 | 0.00 | 21 | 1004.5 |
| 20260503013029 | 83 | 101 | 0.0 | 3.5 | 0.00 | 0.00 | 0.00 | 21 | 1004.4 |
| 20260503011533 | 84 | 122 | 1.7 | 4.3 | 0.00 | 0.00 | 0.00 | 20 | 1004.5 |
| 20260503010033 | 84 | 100 | 1.7 | 6.1 | 0.00 | 0.00 | 0.00 | 20 | 1004.5 |
| 20260503004527 | 85 | 84 | 0.0 | 3.5 | 0.00 | 0.00 | 0.00 | 19 | 1004.3 |
| 20260503003028 | 85 | 98 | 0.9 | 6.1 | 0.00 | 0.00 | 0.00 | 18 | 1004.3 |
| 20260503001527 | 87 | 95 | 0.9 | 3.5 | 0.00 | 0.00 | 0.00 | 18 | 1004.4 |
| 20260503000026 | 87 | 138 | 4.3 | 9.6 | 0.00 | 0.00 | 0.00 | 17 | 1004.3 |
| 20260502234534 | 87 | 319 | 1.7 | 3.5 | 0.00 | 0.00 | 0.00 | 17 | 1004.3 |
| 20260502233025 | 86 | 347 | 1.7 | 4.3 | 0.00 | 0.00 | 0.00 | 17 | 1004.4 |
| 20260502231522 | 86 | 243 | 0.0 | 5.2 | 0.00 | 0.00 | 0.00 | 16 | 1004.7 |